AirNav   TITAN Aviation Fuels
 
 1018 users online  

55AR Silver Wings Field Airport
Eureka Springs, Arkansas, USA

GOING TO EUREKA SPRINGS?


FAA INFORMATION EFFECTIVE 15 JULY 2021

Location

FAA Identifier: 55AR
Lat/Long: 36-25-47.0000N 093-41-44.0000W
36-25.783333N 093-41.733333W
36.4297222,-93.6955556
(estimated)
Elevation: 1571 ft. / 479 m (estimated)
Variation: 03E (2000)
From city: 3 miles NE of EUREKA SPRINGS, AR
Time zone: UTC -5 (UTC -6 during Standard Time)
Zip code: 72632

Airport Operations

Airport use: Private use. Permission required prior to landing
Activation date: 09/2002
Control tower: no
ARTCC: MEMPHIS CENTER
FSS: JONESBORO FLIGHT SERVICE STATION
Attendance: UNATNDD
Wind indicator: yes
Segmented circle: no

Nearby radio navigation aids

VOR radial/distance  VOR name  Freq  Var
RZCr058/23.3RAZORBACK VORTAC116.4004E
HROr282/24.2HARRISON VOR/DME112.5004E

Airport Services

Runway Information

Runway 16/34

Dimensions: 1900 x 65 ft. / 579 x 20 m
Surface: turf, in good condition
RUNWAY 16  RUNWAY 34
Traffic pattern: rightleft

Airport Ownership and Management from official FAA records

Ownership: Privately-owned
Owner: AVIATION CADET MUSEUM INC
542 CR 2073
EUREKA SPRINGS, AR 72632
Phone (479) 253-2008
OR 479-253-5008.
Manager: ERROL D. SEVERE
542 CR 2073
EUREKA SPRINGS, AR 72632
Phone 479-253-5008

Airport Operational Statistics

Aircraft based on the field: 1
Single engine airplanes: 1
    
Aircraft operations: 48/year *
100% transient general aviation
* for 12-month period ending 31 August 2007

Additional Remarks

RADIO CONTROLLED MODEL ACFT INVOF RY ON THE SE END.
NO LNDGS RY 34. ALL TKOFS WILL BE TO THE N AND ALL LNDGS WILL BE FM THE N.
ALL PILOTS MUST CONTACT AMGR AT 479-253-5008 TO OBTAIN PMSN TO LND.
FOR CD CTC RAZORBACK APCH 479-649-2416, WHEN APCH CLSD CTC MEMPHIS ARTCC AT 901-368-8453/8449.

Instrument Procedures

There are no published instrument procedures at 55AR.

Some nearby airports with instrument procedures:

4M1 - Carroll County Airport (4 nm SE)
94K - Cassville Municipal Airport (19 nm NW)
KROG - Rogers Executive Airport - Carter Field (20 nm W)
H34 - Huntsville Municipal Airport (21 nm S)
KFWB - Branson West Municipal Airport - Emerson Field (21 nm NE)
 
Loc | Ops | Rwys | IFR | FBO | Links
Com | Nav | Svcs | Stats | Notes
Aerial photo
WARNING: Photo may not be current or correct
Aerial photo of 55AR (Silver Wings Field Airport)
Photo taken 08-May-2015
looking southwest.

Do you have a better or more recent aerial photo of Silver Wings Field Airport that you would like to share? If so, please send us your photo.

 
Sectional chart

 
Airport distance calculator
Flying to Silver Wings Field Airport? Find the distance to fly.

From to 55AR

Sunrise and sunset
Times for 25-Jul-2021
 Local
(UTC-5)
 Zulu
(UTC)
Morning civil twilight05:4810:48
Sunrise06:1711:17
Sunset20:2601:26
Evening civil twilight20:5501:55

Current date and time
Zulu (UTC)  26-Jul-2021 01:37:28
Local (UTC-5)  25-Jul-2021 20:37:28
 
METAR
KROG 
19nm W 
260058Z AUTO 00000KT 10SM CLR 28/24 A2998 RMK AO2 SLP133 T02780239
KFWB 
21nm NE 
260115Z AUTO 09003KT 9SM CLR 26/24 A2998 RMK AO2
KBBG 
25nm E 
260045Z 00000KT 10SM SCT100 27/23 A2999
KVBT 
26nm W 
260056Z AUTO 00000KT 10SM CLR 28/24 A2998 RMK AO2 SLP140 T02780244 TSNO
KASG 
26nm SW 
260048Z 36004KT 10SM CLR 29/27 A2997
KHRO 
28nm E 
260053Z AUTO 01004KT CLR 28/23 A2998 RMK AO2 SLP135 T02780233 $
KXNA 
30nm W 
260053Z 33003KT 10SM CLR 28/24 A2996 RMK AO2 SLP128 T02830239
KHFJ 
32nm NW 
260115Z AUTO 03005KT 10SM CLR 25/23 A2996 RMK AO2
KFYV 
34nm SW 
260053Z 24003KT 10SM CLR 28/24 A2996 RMK AO2 SLP130 T02830244
TAF
KROG 
19nm W 
251720Z 2518/2618 00000KT P6SM SCT060 BKN250 FM260000 VRB03KT P6SM SCT250
NOTAMs
Click for the latest NOTAMs
NOTAMs are issued by the DoD/FAA and will open in a separate window not controlled by AirNav.

 

 
 

Things to do: Attractions on or near the airport

  
 Business Name 
 
 Contact 
 
 Services / Description 
 
Distance
 
Comments
  
Aviation Cadet World 479-253-5008
no information available

If you are affiliated with Aviation Cadet World and would like to show here your services, contact info, web link, logo, and more, click here
on airport  
   write
 

Would you like to see your business listed on this page?

 If your business provides an interesting product or service to pilots, flight crews, aircraft, or users of the Silver Wings Field Airport, you should consider listing it here.  To start the listing process, click on the button below
 
Add a business
 

Other Pages about Silver Wings Field Airport

Update a link
 
Copyright © AirNav, LLC. All rights reserved. Privacy Policy  Contact